Location: Newark
(15.4608°S, 41.1635°W)
Time: 00:10:17
(UTC+00:00)

Transit 4A - Pass Details

Date: 05 March 2021
Orbit: 869 x 975 km, 66.8° (Epoch: 16 April)

Event Time Altitude Azimuth Distance (km) Brightness Sun altitude
Rises 11:05:04 0° 211° (SSW) 3,637 10.7 32.6°
Reaches altitude 10° 11:07:41 10° 216° (SW) 2,700 10.1 33.2°
Maximum altitude 11:13:43 48° 288° (WNW) 1,251 8.6 34.7°
Drops below altitude 10° 11:19:47 10° 1° (N) 2,710 10.5 36.1°
Sets 11:22:26 0° 7° (N) 3,652 11.1 36.8°
